Temp
61 60 60 60 59 59 59 60 60 60 61 61 61 61 61 61 61 55 59 69 67 72 72 69 71 69 67 65 66 65 59 54 58 58 60 62 63 68 72 70 74 73 71 73 76
59 60 59 59 59 59 59 60 60 60 60 61 61 61 61 61 55 59 71 73 74 74 69 68 65 67 62 61 62 59 54 59 64 62 57 60 61 65 67 68 68 71 76 76 74
59 59 60 59 59 59 60 60 60 60 60 60 61 61 61 59 56 61 75 73 74 72 68 67 65 64 56 58 56 52 57 63 65 62 62 62 64 66 64 62 68 69 70 74 73
59 59 59 59 59 59 60 60 60 61 61 60 60 61 61 55 49 66 75 73 74 68 67 66 63 57 55 53 57 51 63 64 66 66 63 60 64 63 64 69 71 72 70 69 71
58 58 59 59 59 59 59 59 59 61 61 60 61 61 56 55 59 71 76 74 69 68 66 64 60 55 50 53 55 51 58 63 66 60 59 63 63 64 65 71 71 72 72 70 69
57 57 58 58 58 59 59 58 58 59 60 61 61 62 57 56 72 75 74 70 70 64 61 62 60 60 56 54 53 58 59 61 61 58 57 61 61 62 68 68 70 70 70 70 69
57 57 57 57 58 58 58 58 57 58 61 62 63 63 59 63 73 73 72 66 69 71 66 66 66 63 57 54 58 58 54 59 60 58 58 60 55 60 63 66 66 67 66 68 68
57 56 57 57 58 58 58 58 58 59 61 63 64 58 58 71 70 69 68 71 71 70 70 71 67 62 55 57 58 52 51 46 54 61 61 58 52 60 62 63 64 65 66 67 67
57 56 56 57 57 58 57 57 58 60 62 63 57 56 56 75 70 74 73 71 71 71 71 79 65 56 57 50 48 48 42 42 50 54 56 55 53 61 64 61 61 62 63 64 64
57 56 56 56 57 57 56 59 61 61 63 66 68 59 65 64 70 74 73 73 68 67 66 64 55 51 48 47 41 42 42 44 44 55 55 49 53 58 59 57 58 58 59 60 61
56 56 56 56 57 56 56 60 61 59 59 57 61 62 66 70 74 71 73 69 66 62 52 54 50 45 49 51 51 50 46 44 48 53 51 48 49 53 57 55 53 55 56 57 58
56 56 56 56 56 56 53 62 61 62 56 64 66 66 70 68 64 69 73 62 60 52 54 51 46 53 56 54 52 50 44 44 50 54 49 48 49 52 55 55 53 53 54 55 56
55 55 56 56 56 58 59 63 64 62 53 62 67 66 65 68 63 64 66 60 57 53 52 47 54 60 57 52 52 47 45 44 46 50 48 47 44 48 55 56 57 56 55 56 56
55 55 55 55 61 57 62 64 61 62 47 57 61 66 67 65 62 71 68 62 58 51 51 48 57 57 53 51 51 42 52 51 49 43 37 46 34 42 48 50 53 53 53 53 55
55 55 55 55 59 61 65 59 59 64 36 59 61 70 65 61 62 66 69 65 53 54 54 51 53 52 50 51 53 49 53 47 46 40 36 39 35 41 45 48 49 52 54 54 55
54 55 55 57 55 60 61 58 64 47 37 56 62 59 57 60 61 63 63 66 62 55 53 51 57 55 52 55 55 54 48 43 37 35 30 35 36 37 42 48 50 53 54 56 56
54 54 52 59 60 59 59 60 46 39 57 53 53 58 54 55 58 59 55 52 48 43 42 49 51 55 58 51 53 50 40 31 30 28 30 38 35 40 48 51 53 53 55 55 55
53 52 54 62 57 59 59 52 39 50 50 57 56 55 52 54 54 55 52 47 52 48 40 38 40 52 57 50 43 41 40 30 27 26 30 39 34 42 50 53 55 55 54 55 55
52 55 58 62 61 59 55 41 42 48 55 53 53 49 49 53 53 51 48 47 50 49 39 38 41 52 54 54 50 42 37 40 34 30 27 32 39 48 50 51 52 52 52 53 54
50 54 57 60 60 57 48 44 49 57 58 56 45 49 43 47 47 47 47 52 51 53 49 44 36 48 53 54 51 44 48 33 30 25 25 30 32 38 44 48 49 49 50 53 53
51 55 62 58 59 52 42 44 53 61 59 53 48 46 46 44 45 44 46 52 55 53 52 44 38 42 47 43 43 42 38 36 34 30 24 23 31 43 45 48 48 48 50 51 52
47 50 61 59 50 40 44 49 54 58 59 57 53 51 46 46 44 45 45 50 55 52 44 43 37 32 40 49 48 45 40 37 24 28 26 25 33 52 47 48 48 49 51 52 49
45 45 57 58 42 40 46 53 55 55 53 54 50 52 50 44 37 45 47 53 55 50 45 44 35 26 32 40 44 41 41 40 34 29 26 30 34 52 49 51 54 48 48 48 48
44 45 46 46 42 41 41 45 49 57 53 53 50 50 46 43 44 41 45 51 52 51 58 50 34 34 29 35 38 36 40 41 35 22 33 35 39 46 49 49 52 52 50 46 46
41 37 39 37 42 40 40 44 45 46 51 50 47 48 43 33 39 38 43 45 49 52 45 42 33 34 37 39 40 40 39 41 37 38 31 37 37 44 41 42 45 47 46 46 47
39 39 39 38 40 41 41 41 44 46 46 45 43 46 43 37 39 35 39 38 39 43 38 38 31 33 33 40 40 37 40 41 41 41 39 40 37 43 44 44 44 45 47 47 48
39 40 40 39 39 39 38 42 44 44 47 49 45 42 40 43 46 46 44 42 42 37 35 34 26 22 26 34 34 26 34 37 37 38 39 33 40 40 41 43 44 44 46 48 49
MSLP
1015.46 1015.15 1014.75 1014.39 1014.17 1013.85 1013.60 1013.34 1013.11 1012.95 1012.84 1012.70 1012.56 1012.48 1012.36 1012.18 1011.95 1011.76 1010.92 1009.74 1009.61 1009.53 1009.39 1009.31 1009.22 1009.31 1009.28 1009.71 1009.80 1010.16 1011.02 1011.25 1010.88 1010.41 1009.27 1008.74 1008.47 1008.13 1007.78 1007.68 1007.35 1007.48 1007.65 1007.85 1007.58
1015.46 1015.07 1014.75 1014.36 1013.97 1013.72 1013.37 1013.07 1012.86 1012.74 1012.61 1012.55 1012.49 1012.42 1012.37 1012.23 1011.91 1011.02 1009.47 1009.31 1009.43 1009.42 1009.47 1009.44 1009.66 1009.53 1009.97 1010.10 1010.14 1010.51 1011.01 1010.55 1010.06 1009.60 1009.21 1008.84 1008.57 1008.25 1008.12 1008.03 1007.98 1007.69 1007.34 1007.65 1007.76
1015.37 1014.97 1014.60 1014.24 1013.86 1013.50 1013.21 1012.86 1012.51 1012.38 1012.35 1012.35 1012.42 1012.38 1012.26 1012.24 1011.60 1009.88 1009.05 1009.22 1009.39 1009.53 1009.60 1009.72 1009.84 1009.82 1010.38 1010.38 1010.52 1010.87 1010.67 1010.36 1009.81 1009.55 1009.10 1008.93 1008.62 1008.34 1008.30 1008.32 1008.07 1007.88 1007.99 1007.74 1007.59
1015.34 1014.87 1014.45 1014.12 1013.75 1013.37 1012.93 1012.71 1012.46 1012.16 1012.12 1012.21 1012.26 1012.26 1012.20 1012.11 1011.08 1009.25 1008.98 1009.18 1009.47 1009.60 1009.68 1009.84 1009.93 1010.26 1010.62 1010.82 1010.86 1010.69 1010.06 1010.09 1009.67 1009.37 1009.10 1009.07 1008.66 1008.61 1008.43 1008.17 1007.84 1007.98 1008.03 1008.04 1008.01
1015.32 1014.78 1014.33 1013.87 1013.60 1013.22 1012.83 1012.50 1012.34 1012.14 1012.10 1012.14 1012.13 1012.07 1012.11 1011.38 1009.78 1008.87 1009.12 1009.41 1009.64 1009.73 1009.70 1009.77 1010.06 1010.48 1010.64 1010.66 1010.71 1010.70 1010.36 1009.94 1009.52 1009.43 1009.30 1009.12 1008.94 1008.92 1008.47 1007.97 1008.14 1008.21 1008.09 1007.99 1008.22
1015.30 1014.73 1014.21 1013.76 1013.38 1013.05 1012.70 1012.40 1012.19 1012.05 1011.96 1012.01 1011.98 1011.92 1011.50 1010.23 1008.76 1008.87 1009.21 1009.48 1009.51 1009.67 1009.77 1009.67 1009.98 1010.25 1010.74 1010.95 1010.82 1010.78 1010.54 1010.25 1009.85 1009.52 1009.50 1009.45 1009.22 1009.17 1008.60 1008.47 1008.59 1008.68 1008.52 1008.28 1008.32
1015.24 1014.70 1014.10 1013.59 1013.18 1012.85 1012.53 1012.26 1012.08 1011.97 1011.89 1011.90 1011.85 1011.71 1010.92 1009.54 1008.81 1008.86 1009.06 1009.11 1009.15 1009.35 1009.50 1009.55 1009.70 1010.12 1010.74 1010.79 1010.91 1011.10 1010.95 1010.43 1010.14 1009.99 1009.91 1009.84 1009.83 1009.45 1009.42 1009.14 1009.01 1008.98 1009.04 1008.73 1008.53
1015.18 1014.58 1013.98 1013.41 1012.96 1012.58 1012.24 1011.99 1011.90 1011.92 1011.92 1011.87 1011.89 1011.74 1010.46 1008.82 1008.79 1008.89 1008.98 1008.90 1008.99 1009.15 1009.24 1009.36 1009.72 1010.38 1010.94 1011.19 1011.43 1011.56 1011.52 1011.36 1011.11 1010.45 1010.24 1010.21 1010.30 1009.73 1009.66 1009.68 1009.78 1009.56 1009.51 1009.28 1008.85
1015.02 1014.41 1013.82 1013.22 1012.73 1012.35 1011.91 1011.63 1011.63 1011.82 1011.86 1011.86 1011.90 1011.42 1009.96 1008.70 1008.77 1008.61 1008.67 1008.88 1008.92 1009.09 1009.23 1009.52 1010.07 1011.22 1011.48 1011.97 1012.44 1012.54 1012.36 1012.01 1011.62 1011.35 1011.22 1010.97 1010.82 1010.06 1009.83 1010.28 1010.34 1010.00 1009.77 1009.69 1009.30
1014.80 1014.14 1013.60 1013.04 1012.53 1012.23 1011.52 1011.27 1011.54 1011.71 1011.85 1011.75 1011.48 1011.21 1009.74 1009.16 1008.79 1008.58 1008.60 1008.76 1009.13 1009.38 1009.94 1010.38 1011.41 1012.02 1012.53 1012.68 1013.06 1012.80 1012.53 1012.28 1012.21 1012.10 1011.68 1011.64 1011.46 1011.03 1010.82 1010.93 1010.82 1010.53 1010.09 1010.11 1010.11
1014.66 1013.93 1013.31 1012.79 1012.35 1012.22 1011.88 1011.76 1012.24 1011.95 1011.58 1011.33 1011.08 1010.53 1009.73 1009.14 1008.74 1008.68 1008.72 1009.06 1009.51 1010.11 1011.04 1011.49 1012.32 1012.50 1012.47 1012.47 1012.43 1012.39 1012.49 1012.56 1012.44 1012.47 1012.40 1012.39 1012.28 1011.80 1011.44 1011.41 1011.13 1010.77 1010.52 1010.59 1010.66
1014.53 1013.85 1013.11 1012.51 1012.08 1011.95 1011.95 1012.12 1012.22 1012.13 1011.60 1010.70 1010.49 1010.07 1009.44 1009.10 1009.10 1008.92 1008.88 1009.64 1010.11 1010.98 1011.34 1012.01 1012.16 1011.95 1011.86 1012.02 1012.17 1012.34 1012.68 1012.93 1012.91 1012.89 1013.09 1013.01 1012.81 1012.31 1012.08 1011.96 1011.93 1011.83 1011.49 1011.32 1011.43
1014.34 1013.60 1012.98 1012.28 1011.86 1011.76 1012.20 1012.15 1011.86 1011.80 1011.78 1010.57 1009.91 1009.43 1009.13 1009.19 1009.25 1009.25 1009.38 1009.95 1010.55 1011.17 1011.69 1012.03 1011.82 1011.41 1011.51 1011.92 1012.19 1012.55 1012.87 1013.26 1013.75 1013.74 1013.78 1013.74 1013.43 1013.00 1012.55 1012.30 1012.20 1012.20 1012.06 1011.97 1011.93
1014.24 1013.47 1012.79 1012.06 1011.94 1012.39 1012.11 1011.80 1011.56 1011.40 1011.62 1010.74 1009.71 1009.13 1009.05 1009.10 1009.41 1009.34 1009.54 1010.20 1010.85 1011.45 1011.84 1012.10 1011.83 1011.73 1011.93 1012.15 1012.40 1012.87 1013.09 1013.72 1014.32 1014.92 1015.35 1014.93 1014.91 1013.72 1013.10 1012.94 1012.90 1012.78 1012.68 1012.55 1012.35
1014.26 1013.54 1013.02 1012.59 1012.50 1012.37 1012.08 1011.62 1011.34 1011.43 1011.64 1010.73 1009.68 1009.05 1009.29 1009.75 1009.87 1009.93 1009.82 1010.07 1011.08 1011.72 1012.29 1012.51 1012.17 1012.09 1012.14 1012.29 1012.58 1013.21 1013.56 1014.55 1015.10 1015.85 1016.32 1016.16 1016.23 1013.89 1013.57 1013.31 1013.09 1012.92 1012.85 1012.69 1012.58
1014.20 1013.55 1013.15 1012.80 1012.74 1012.10 1011.77 1011.50 1011.58 1012.29 1011.83 1010.84 1010.08 1009.88 1010.13 1010.26 1010.29 1010.43 1010.49 1010.77 1011.36 1012.17 1012.76 1012.90 1012.53 1012.47 1012.50 1012.68 1013.02 1013.62 1014.46 1015.61 1016.58 1017.24 1017.48 1016.89 1016.65 1014.69 1013.67 1012.81 1012.92 1012.81 1012.84 1012.71 1012.67
1013.89 1013.36 1013.19 1012.85 1012.68 1012.03 1011.76 1012.04 1012.85 1012.64 1012.24 1011.88 1011.31 1011.05 1011.09 1011.35 1011.27 1011.31 1011.84 1012.35 1012.98 1013.39 1014.19 1013.80 1013.29 1013.00 1012.91 1013.13 1013.58 1014.33 1015.87 1017.12 1018.00 1018.40 1018.28 1017.31 1016.82 1014.19 1012.84 1012.37 1012.31 1012.59 1012.71 1012.71 1012.69
1013.57 1013.15 1012.96 1012.57 1012.36 1012.11 1012.35 1013.03 1013.48 1013.32 1012.79 1012.39 1012.21 1012.04 1012.49 1012.59 1012.66 1012.67 1013.03 1013.71 1013.92 1014.35 1015.19 1015.19 1014.38 1013.99 1013.88 1014.08 1014.58 1015.36 1016.50 1018.15 1019.15 1019.66 1019.01 1017.42 1016.05 1013.42 1012.30 1011.98 1011.89 1012.20 1012.52 1012.68 1012.79
1013.26 1013.05 1013.09 1012.51 1012.09 1012.22 1013.21 1014.15 1014.08 1013.47 1013.01 1012.90 1012.87 1013.32 1013.66 1013.51 1013.56 1013.71 1014.20 1014.68 1014.83 1014.94 1015.61 1015.89 1015.37 1014.72 1014.51 1014.47 1014.87 1015.76 1016.85 1017.80 1019.07 1020.11 1019.89 1017.71 1015.50 1013.37 1012.30 1012.20 1012.24 1012.53 1012.88 1012.98 1013.13
1014.58 1014.11 1013.38 1012.56 1012.22 1012.62 1013.78 1014.61 1014.14 1013.44 1013.08 1013.22 1013.81 1014.26 1014.78 1014.84 1014.74 1014.71 1014.86 1015.06 1015.12 1015.30 1015.57 1016.44 1016.54 1015.73 1015.28 1014.94 1015.37 1015.79 1016.85 1018.33 1019.99 1020.91 1020.31 1018.04 1016.30 1014.19 1013.13 1012.68 1012.71 1012.92 1013.00 1012.94 1012.65
1015.00 1014.62 1013.15 1012.51 1012.49 1013.69 1015.41 1015.29 1014.36 1013.55 1013.38 1013.78 1014.31 1014.88 1015.42 1015.64 1015.59 1015.60 1015.63 1015.67 1015.41 1015.71 1015.94 1016.77 1017.61 1017.20 1016.54 1016.28 1016.21 1016.60 1017.45 1018.97 1020.29 1020.93 1020.62 1019.25 1015.90 1013.74 1013.31 1012.82 1012.79 1013.00 1013.05 1012.92 1012.82
1015.95 1015.64 1013.52 1012.77 1014.25 1016.21 1016.47 1015.83 1015.11 1014.25 1014.01 1014.28 1014.79 1015.35 1015.86 1016.12 1016.23 1016.22 1016.25 1016.29 1016.11 1016.38 1017.14 1017.74 1018.51 1018.74 1017.83 1016.73 1016.79 1017.04 1017.83 1019.05 1020.93 1021.31 1020.89 1020.03 1014.67 1013.70 1013.27 1013.19 1013.23 1013.10 1012.90 1012.70 1012.78
1017.83 1016.91 1014.26 1013.83 1016.45 1017.67 1017.08 1016.33 1015.73 1015.24 1015.32 1015.22 1015.78 1016.10 1016.40 1016.91 1017.23 1017.06 1017.04 1017.14 1017.01 1017.26 1017.68 1018.04 1019.07 1019.41 1018.70 1018.04 1017.45 1017.69 1018.35 1019.05 1020.14 1020.63 1020.25 1019.90 1014.64 1013.40 1013.12 1013.18 1012.80 1013.06 1013.04 1012.94 1013.04
1018.85 1018.74 1017.77 1017.64 1018.77 1018.56 1018.27 1017.64 1016.73 1016.09 1016.28 1016.30 1016.75 1016.93 1017.37 1017.80 1018.00 1018.05 1017.91 1017.60 1017.57 1017.74 1017.95 1018.46 1019.79 1020.20 1019.98 1019.43 1019.04 1018.87 1018.80 1019.14 1019.92 1020.05 1019.24 1016.84 1015.70 1013.73 1014.57 1014.12 1013.50 1012.96 1012.67 1012.77 1012.99
1020.28 1021.73 1021.54 1020.83 1020.28 1019.85 1019.18 1018.62 1017.97 1017.49 1017.22 1017.19 1017.61 1017.89 1018.26 1018.89 1018.96 1018.98 1018.89 1018.82 1018.43 1018.29 1018.69 1019.47 1020.45 1020.56 1020.17 1019.83 1019.35 1018.77 1018.73 1018.69 1018.65 1018.04 1018.72 1016.05 1016.17 1015.12 1015.37 1015.32 1014.67 1014.23 1013.45 1013.00 1012.84
1022.10 1022.57 1022.33 1021.88 1021.22 1020.39 1020.11 1019.84 1019.08 1018.67 1018.51 1018.35 1018.48 1018.66 1018.86 1019.24 1019.40 1019.69 1019.76 1019.96 1019.64 1019.42 1019.87 1020.61 1021.15 1021.24 1020.96 1019.86 1019.44 1019.08 1018.26 1017.52 1017.78 1017.76 1017.50 1016.78 1015.38 1015.87 1015.49 1015.42 1014.90 1014.09 1013.97 1013.09 1012.37
1023.15 1023.03 1022.80 1022.69 1021.83 1021.24 1021.01 1020.37 1019.89 1019.51 1019.28 1019.01 1019.12 1019.27 1019.47 1019.54 1019.55 1019.51 1019.72 1020.03 1020.17 1020.43 1020.94 1021.62 1022.31 1023.07 1022.01 1021.10 1020.19 1019.02 1017.58 1017.43 1017.65 1017.62 1017.60 1017.26 1016.29 1015.79 1015.78 1015.34 1014.40 1013.87 1013.35 1012.43 1011.68
Wind_Speed
15 14 14 13 12 12 11 10 9 8 7 8 9 8 8 9 8 0 3 5 2 0 3 3 4 4 3 3 3 3 4 3 7 6 3 2 4 1 2 2 4 3 3 2 4
17 15 15 14 13 11 10 10 8 8 8 9 8 8 7 7 2 3 7 4 2 2 4 5 3 4 4 3 3 5 3 5 4 5 1 1 1 2 1 3 2 3 5 1 1
18 17 15 14 13 12 10 9 9 7 8 8 7 7 7 5 1 2 5 7 5 3 3 2 2 3 3 2 2 1 4 4 3 3 1 3 3 2 2 2 5 5 3 6 1
19 18 17 15 14 13 12 9 7 7 7 6 6 6 6 1 3 2 8 7 6 3 2 3 4 4 4 2 1 0 5 3 4 5 4 3 2 1 3 7 3 5 4 3 4
19 19 18 17 14 13 12 10 8 6 4 4 4 5 3 0 2 1 7 6 4 0 3 3 4 2 2 1 2 2 3 4 4 3 3 1 5 5 6 8 7 6 6 8 6
19 19 18 17 15 13 12 10 8 7 4 3 3 4 2 6 2 6 7 4 1 2 2 2 3 4 4 2 2 2 4 7 5 3 3 5 4 4 3 5 5 6 9 9 7
20 19 18 17 16 14 12 10 9 6 5 3 2 2 2 6 2 3 6 3 2 4 1 1 3 4 2 2 2 1 4 6 5 6 3 4 2 7 4 6 7 10 7 7 6
21 20 19 17 16 14 13 11 9 5 4 2 2 1 3 3 2 1 2 2 2 3 1 4 2 5 1 1 6 4 5 2 4 9 5 4 7 3 3 7 10 9 7 8 9
22 20 19 17 16 15 14 11 5 2 2 3 1 1 2 8 1 2 3 1 2 2 4 4 4 3 4 5 5 7 2 1 3 3 4 5 6 5 9 9 10 9 9 7 8
22 20 19 17 16 14 15 4 10 7 1 2 2 4 3 1 2 2 0 1 2 2 5 7 6 4 4 5 4 3 0 2 1 6 6 3 6 10 9 6 8 9 10 8 8
24 21 19 17 15 10 2 3 6 5 4 2 3 2 4 3 3 2 2 3 3 8 4 3 6 2 4 5 1 3 2 2 2 1 4 4 7 10 9 7 10 10 8 6 6
25 23 21 17 15 9 1 5 2 4 5 2 4 4 4 2 1 4 3 4 4 3 2 6 0 2 3 4 2 2 2 3 4 3 1 4 9 4 5 5 5 6 8 9 4
24 22 20 17 14 3 2 3 5 1 3 6 3 2 2 4 1 3 3 1 4 4 4 3 4 3 4 3 3 1 3 1 4 6 2 5 6 5 2 6 8 7 5 6 6
24 22 20 21 4 3 2 6 4 2 5 5 3 3 2 2 3 1 2 3 4 2 2 2 4 5 4 0 3 1 3 1 3 4 2 3 6 4 1 2 6 7 7 6 7
24 21 17 12 3 3 4 7 1 5 5 1 1 2 1 4 2 6 3 5 2 2 6 5 5 5 4 1 2 4 2 2 2 2 2 3 3 8 2 5 2 2 3 5 5
24 20 14 1 2 2 6 4 5 7 3 3 2 3 2 3 2 2 3 7 1 4 4 3 4 3 1 3 3 1 1 6 4 3 2 4 4 7 5 8 5 3 3 5 5
25 18 3 2 2 5 4 5 6 6 4 7 3 5 2 4 4 3 4 6 3 5 6 7 3 2 5 4 4 8 7 5 7 6 6 3 2 10 6 6 7 9 8 6 5
27 12 3 2 5 4 4 7 8 1 2 3 4 4 5 7 5 7 3 4 6 5 3 4 7 5 7 3 1 2 5 6 4 3 5 4 7 8 5 4 5 7 6 5 6
19 3 3 6 2 3 7 7 4 1 2 4 2 7 6 6 4 4 4 1 2 3 4 4 5 4 2 2 2 1 1 2 3 2 2 5 9 9 4 4 4 6 6 6 5
3 3 3 9 2 5 7 2 0 2 2 4 4 2 4 6 5 6 5 4 2 4 2 3 4 2 5 4 4 2 4 2 4 2 6 5 6 8 4 9 6 6 8 6 4
4 4 4 8 4 7 5 1 3 3 2 3 2 3 2 2 1 2 2 4 3 3 5 3 3 6 3 1 5 3 3 6 3 5 4 4 7 6 7 9 7 8 7 8 8
2 3 5 4 7 2 2 3 6 2 7 4 5 4 2 1 2 2 2 3 6 3 3 2 4 4 9 8 2 3 4 5 6 5 3 4 16 10 5 6 4 8 9 9 6
3 3 5 5 4 3 5 3 4 7 5 4 4 4 3 2 3 2 3 2 6 3 1 2 2 4 10 6 3 3 3 3 3 4 5 8 14 6 6 10 14 11 10 8 7
4 4 7 7 2 3 3 4 4 6 4 5 3 5 4 3 4 2 4 2 7 2 4 4 2 7 8 7 1 5 7 7 4 4 12 23 25 25 17 18 20 17 14 8 7
5 1 2 3 5 4 2 2 4 6 6 8 4 4 3 1 4 1 2 5 5 5 3 3 5 5 8 7 8 14 14 17 18 18 9 25 20 22 7 11 15 12 8 8 10
4 3 4 0 3 2 5 4 4 4 5 4 3 3 3 4 7 4 3 4 6 5 3 2 4 2 5 12 10 11 17 20 15 14 13 15 20 5 7 12 14 15 21 16 15
2 2 3 5 3 3 1 2 2 2 1 3 1 2 2 3 5 9 7 3 5 3 2 1 2 3 5 4 8 7 7 4 0 5 6 8 16 4 8 16 15 15 17 24 19
Wind_Direction
353 348 345 340 337 332 326 317 303 290 283 281 284 294 309 322 312 89 258 216 135 172 300 305 53 4 46 57 35 124 71 200 182 168 232 314 39 330 305 24 25 37 85 287 302
352 348 346 341 337 334 330 323 301 280 269 269 283 298 311 329 305 267 248 160 173 349 45 50 24 11 46 31 17 88 130 214 206 173 187 274 196 265 19 24 345 338 331 76 81
348 347 344 341 336 331 325 320 310 278 262 267 280 297 309 325 10 265 177 159 141 63 72 79 89 61 71 27 42 156 199 198 238 208 226 286 303 208 142 292 207 227 228 300 326
348 345 343 341 337 332 325 322 316 291 272 274 282 289 301 104 112 257 164 146 132 104 77 87 46 63 74 153 197 307 253 222 262 190 150 220 208 232 203 230 197 239 235 258 254
347 345 343 338 338 334 326 323 320 310 264 248 263 283 276 156 275 4 120 127 127 156 73 116 67 105 144 232 10 144 285 301 295 308 236 304 230 218 245 260 296 310 294 273 252
347 345 341 337 335 333 327 318 313 305 285 241 249 278 276 69 244 127 136 142 183 108 77 116 138 175 138 204 134 246 278 296 306 305 231 180 245 161 274 352 318 318 314 308 271
347 344 339 336 332 330 323 312 303 289 287 257 276 318 54 205 37 137 151 197 181 171 151 234 131 88 119 346 341 290 311 341 21 329 36 162 228 235 358 335 1 356 332 330 304
347 343 338 333 329 326 320 309 299 286 273 236 258 314 229 282 327 176 176 313 202 247 221 154 158 99 80 294 17 49 49 61 343 7 355 79 269 265 320 25 333 322 316 319 302
345 341 338 332 327 327 319 307 279 183 229 195 255 341 329 320 350 282 168 307 333 77 35 98 71 83 27 74 18 8 165 255 343 65 343 41 278 283 326 6 313 306 301 294 303
344 339 336 331 327 335 331 127 125 119 268 223 252 44 333 292 272 305 34 71 35 28 26 41 48 60 35 69 197 211 10 275 183 329 0 324 273 304 316 341 299 294 302 317 317
344 339 334 330 327 339 347 76 18 352 32 201 254 221 299 302 25 310 39 75 46 46 59 16 64 225 219 192 164 130 122 318 311 153 4 309 295 302 328 1 338 322 317 327 17
342 340 335 328 324 328 201 73 103 215 326 258 248 282 253 199 37 304 64 74 60 76 359 20 340 238 188 151 137 78 100 313 293 293 10 317 295 303 326 345 350 345 28 60 36
341 339 336 328 319 2 85 87 295 258 104 304 214 204 210 144 237 291 68 82 85 54 36 132 280 343 89 85 94 83 140 263 238 336 346 330 327 350 330 10 10 12 44 60 57
341 339 337 325 57 294 33 335 331 150 69 303 344 334 70 99 6 200 91 123 34 57 99 242 315 75 58 45 109 317 199 208 276 51 253 48 282 296 237 12 11 6 24 26 40
341 339 337 354 167 62 296 335 283 57 72 284 321 316 31 92 291 351 355 31 89 14 70 284 346 8 20 358 134 210 65 25 332 197 82 310 103 270 241 226 229 353 38 74 77
339 336 333 48 22 285 321 314 51 45 56 4 39 7 54 11 328 58 43 37 41 86 13 280 288 38 337 61 63 70 40 50 57 92 27 254 150 278 198 201 189 204 202 151 128
338 332 304 339 275 323 340 48 43 83 325 333 343 1 14 358 10 34 36 15 47 25 0 341 6 332 41 35 21 53 46 336 347 8 230 311 346 240 246 227 185 188 200 194 164
333 325 236 230 296 330 50 54 72 274 336 335 14 22 77 359 18 7 68 35 28 69 65 42 337 12 337 74 287 32 139 154 259 245 268 309 243 254 251 259 183 182 192 202 209
324 346 32 317 317 57 72 58 179 207 278 1 44 56 357 2 59 55 46 67 50 51 103 35 291 323 26 338 88 238 226 189 120 18 21 244 299 309 206 236 243 205 201 211 215
23 8 298 321 343 64 74 140 326 247 57 50 82 34 46 351 42 35 19 336 41 62 114 193 319 318 301 16 33 164 158 29 8 280 264 277 271 242 254 249 237 233 232 239 327
43 47 270 336 60 48 100 236 322 20 44 61 115 82 100 41 11 360 359 12 20 8 50 112 127 287 350 319 247 324 325 58 118 146 208 315 256 222 254 255 233 233 245 266 288
44 44 320 4 51 31 67 346 342 332 24 54 79 77 72 57 18 349 66 59 5 355 39 340 149 253 237 263 289 188 190 133 125 260 214 167 266 292 307 320 258 266 273 275 271
51 278 325 53 83 2 324 4 51 29 27 31 56 50 18 47 57 5 31 142 43 74 47 210 293 330 334 354 2 77 161 136 109 65 202 260 270 306 347 314 288 262 268 251 232
62 23 339 39 21 88 21 352 29 7 54 54 75 60 60 32 5 337 338 316 343 278 327 117 158 188 232 225 287 301 303 285 199 251 277 252 282 283 300 300 298 285 270 238 257
25 50 184 349 355 29 35 1 22 10 6 31 45 57 82 87 336 321 261 325 309 314 84 100 241 216 250 253 245 265 274 267 251 254 239 280 276 292 351 340 346 339 322 300 285
75 54 0 25 298 41 7 7 22 347 22 357 67 342 176 177 182 242 229 202 241 340 66 0 262 296 270 259 260 263 258 261 265 268 267 276 288 154 326 340 325 317 309 298 283
340 4 104 320 355 71 325 320 3 326 8 66 310 112 120 206 226 230 217 216 240 258 258 131 95 50 271 358 305 295 240 207 148 224 258 280 280 6 312 308 304 302 296 290 292